Airfield :
LOGIN :

Register | Disclaimer

   EN    FR    IT 

 










Legend :    VFR   Marginal VFR   IFR   Intensive IFR   Very Intensive IFR
Visi :
Ceiling :
>= 8 km
>= 3000ft
5 to 8 km
1000 to 3000 ft
1500m to 5 km
500 to 1000 ft
800 to 1500m
200 to 500 ft
< 800m
< 200 ft
Symbols :   Thunderstorms  Fog  Heavy snow  Heavy precipitations  Wind > 20 kt
SIGMETs :     Misc.  Thunderstorms  Icing  Turbulence  Mountain Waves  Volcanic Ashes







- Airport Elevation : 277 ft
- IATA code : JER
- Download approach charts


EGJJ - Jersey

CURRENT METAR :
  • 200920Z 26014KT 9999 FEW007 BKN010 16/13 Q1016

EXPIRED METARs :
  • 200850Z 27014KT 9999 FEW008 SCT009 16/13 Q1016
  • 200820Z 26014KT 9999 SCT008 16/13 Q1016
  • 200750Z 26012KT 9999 FEW008 BKN010 15/12 Q1015
  • 200720Z 27013KT 9999 SCT008 BKN010 15/13 Q1015
  • 200650Z 27011KT 9999 FEW008 BKN010 13/12 Q1015

TAF TAF EGJJ
Valid from the 20 at 09:00 until the 20 at 18:00 UTC


200759Z 2009/2018 27012KT 9999 SCT010
PROB30
TEMPO 2009/2011 9000 SHRA BKN009
ATIS : +44 1534 498 073
No reported NOTAMs for that airfield.



MET'MAP, your aeronautical weather chart ! - Copyright ORBIFLY December 2007 - Disclaimer

ORBIFLY MET'MAP TEAM :

Programming & Development : Alexandra Zaïnal
Concept & Development : Baudouin d'Aumeries
Co-Development & Prog : Marc-Olivier Méhu
Technical & hardware support : Manuel Goepfert

Contact : metmap@orbifly.com




SOURCES & CREDITS :

   NOAA